Showing default

BUZZZER-1, 62609

Orbit data source: Space-Track

BUZZZER-1, 62609 is a payload satellite owned by Unseen Labs (FR) in SSO that was launched on Tue, 14 Jan 2025 UTC via an FALCON 9 launch vehicle from the Air Force Western Test Range (AFWTR). Payload-class satellites include a variety of spacecraft equipped with specific instruments for various scientific and technological missions. These include communications satellites like Starlink; space stations such as the ISS; scientific satellites like the Hubble; Earth observation satellites from companies like Planet Labs, Umbra, and HawkEye 360; GPS; miniature CubeSats for education and research; and military/defense satellites.

Loading next visibility...
Identifier
62609, 2025-009A
Orbit
SSO
Country
Flag of FRFR
Related business
Manufacturer
Unseen Labs
Mission
Operational Commercial Sigint
Bus & Motor
CUBESAT 6U, Unknown motor
Mass
~10 kg wet, ~10 kg dry
Launch date (UTC)
2025-01-14 (7 months ago)
Launch vehicle
FALCON 9
Launch site
Air Force Western Test Range (AFWTR)
Object type
Payload
Rocket body
Debris
Shape & HBR
Box + 2 Pan, 0.1 m
Radar Cross Section
0.080 m², Medium (>0.1 m² and < 1m²)

Expand to show TLE details & history
Last TLE update: 20 hours ago

TLE from 20 hours ago
0 BUZZZER-1
1 62609U 25009A   25241.21392802  .00004720  00000-0  22965-3 0  9990
2 62609  97.4202 319.7055 0006437 278.1041  81.9463 15.18855203 34334
Epoch: 2025-08-29T05:08Z
TLE epoch observation values (Epoch: 2025-08-29T05:08:03.38Z)
Latitude
-0.00006°
Longitude
-94.97437°
Altitude
511.769 km
Speed
7.608 km/s
True Right ascension
21h 18m 49s
True Declination
0° 00' 00"
Sunlit
Object was in full shadow at epoch
Visualization orbit readout
Latitude
Unknown
Longitude
Unknown
Altitude
Unknown
Speed
Unknown
Apparent Right ascension
Unknown
Apparent Declination
Unknown
Sunlit
N/A
Visualization observer readout
Local Sidereal Time
16:55:20
Azimuth
Unknown
Elevation
Unknown
Doppler factor
Unknown
Orbital elements
Apogee altitude
510.699 km
Perigee altitude
501.836 km
Semi-major axis
6,884.404 km
Eccentricity
0.00064
Inclination
97.4202°
RAAN
319.7055°
Arg. of periapsis
278.1041°
True anomaly
82.01934°
Mean anomaly
81.9463°
Eccentric anomaly
81.98282°
Mean motion
3.79965 °/min
Orbital period
94.75 mins
BSTAR
0.00022965
Loading maneuver chart data...
Computing Atmospheric mass density...
Loading historical data...
Loading historical data...
Loading historical data...
Loading historical data...
Loading historical data...
Loading historical data...
Loading historical data...

Documentation

Showing up to 5 results
|